sat.trackr.live / text

‹ back to catalog

LARES-2

NORAD 53105 · 2022-080A

PAYLOAD ACTIVE UNKNOWN

§ Identity

Operator
Country
IT
Launch date
2022-07-13
Launch site
FRGUI
Launch vehicle
Mass (kg)
RCS (m²)

Purposes: science

External: N2YO · Heavens-Above · Gunter

§ Orbital elements

Epoch: 2026-09-14T05:27:47.219040Z

Period
225.36 min
Inclination
70.1478°
Eccentricity
0.0005528
Mean motion
6.38965299 rev/d
Perigee alt
5,882.4 km
Apogee alt
5,896.0 km
Semi-major
12,267.3 km
B*
0.0000e+0
RAAN
274.7815°
Arg perigee
316.6821°
Mean anomaly
43.3442°
Rev number
9,735

§ Raw data

LARES-21 53105U 22080A   26257.22762985  .00000002  00000+0  00000+0 0  99992 53105  70.1478 274.7815 0005528 316.6821  43.3442  6.38965299 97355

JSON: /api/v1/satellites/53105 · /tle

For live sub-satellite position, see the globe view (requires WebGL).

§ Visibility from observer

Set your observer location to see the next 7 days of passes ≥ 10°. The values pass through the URL so the page stays shareable.

No JS? Fill the form by hand. The geolocation button needs JavaScript.

§ Radio — SatNOGS DB

ModeDescriptionDownlinkUplink
CW 532nm Retroreflector 40.000 GHz 40.000 GHz

1 transmitter · refreshed weekly from db.satnogs.org